Terminal Aerodrome Forecast
Issued by NWS

Home | Current Version | Previous Version | Text Only | Print | Product List | Glossary On
Versions: 1 2 3 4 5 6 7 8 9 10 11 12 13 14 15 16 17 18 19 20 21 22 23 24 25 26 27 28 29 30
000
FTUS43 KAPX 182011 AAA
TAFMBL
TAF AMD
KMBL 182011Z 1820/1918 VRB04KT P6SM OVC020
     FM182100 36005KT P6SM BKN040
     FM182200 35003KT P6SM SCT035
      AMD LTD TO CLD VIS AND WIND=

USA.gov is the U.S. government's official web portal to all federal, state and local government web resources and services.